This is the latest recevied weather packets stored in our database for station/object DF2AP-13. If no packets are shown the sender has not sent any weather packets the latest 10 day(s).
| Time | Temp. | Humidity | Pressure | Rain* | Wind** | Luminosity | Snow |
|---|---|---|---|---|---|---|---|
| 1777166274 | 5.56° C | 81% | 1023.5 hPa | - | - | - | - |
| 1777165674 | 5.56° C | 81% | 1023.4 hPa | - | - | - | - |
| 1777165074 | 5.56° C | 82% | 1023.3 hPa | - | - | - | - |
| 1777164474 | 6.11° C | 83% | 1023.2 hPa | - | - | - | - |
| 1777163874 | 6.11° C | 83% | 1023.1 hPa | - | - | - | - |
| 1777163274 | 6.67° C | 82% | 1022.9 hPa | - | - | - | - |
| 1777162674 | 6.67° C | 80% | 1022.9 hPa | - | - | - | - |
| 1777162074 | 7.22° C | 79% | 1022.7 hPa | - | - | - | - |
| 1777161474 | 7.22° C | 77% | 1022.5 hPa | - | - | - | - |
| 1777160874 | 7.78° C | 75% | 1022.2 hPa | - | - | - | - |
| 1777160274 | 7.78° C | 74% | 1022.1 hPa | - | - | - | - |
| 1777159674 | 7.78° C | 71% | 1021.9 hPa | - | - | - | - |
| 1777159074 | 8.33° C | 69% | 1021.8 hPa | - | - | - | - |
| 1777158474 | 8.89° C | 67% | 1021.5 hPa | - | - | - | - |
| 1777157879 | 8.89° C | 64% | 1021.5 hPa | - | - | - | - |
| 1777157279 | 8.89° C | 59% | 1021.3 hPa | - | - | - | - |
| 1777156679 | 8.89° C | 56% | 1021.2 hPa | - | - | - | - |
| 1777156074 | 9.44° C | 55% | 1020.6 hPa | - | - | - | - |
| 1777155474 | 9.44° C | 55% | 1020.4 hPa | - | - | - | - |
| 1777154874 | 9.44° C | 54% | 1020.3 hPa | - | - | - | - |
| 1777154274 | 9.44° C | 53% | 1020.2 hPa | - | - | - | - |
| 1777153674 | 10° C | 53% | 1020.1 hPa | - | - | - | - |
| 1777153074 | 10.56° C | 51% | 1019.9 hPa | - | - | - | - |
| 1777152474 | 10.56° C | 49% | 1019.5 hPa | - | - | - | - |
| 1777151874 | 10.56° C | 49% | 1019.5 hPa | - | - | - | - |
* Rain since midnight (hover to see other rain measurements)
** Current wind speed in m/s (hover to see current wind gust speed)